Wind_Speed
8 9 9 10 11 11 12 12 13 13 14 14 15 16 16 17 18 20 21 22 23 24 26 27 28 29 30 31 32 33 33 34 36 36 35 36 38 38
9 10 11 12 12 13 13 14 14 15 15 16 16 17 18 18 19 20 21 22 23 24 25 27 28 29 31 32 32 33 34 36 36 38 38 38 39 39
11 12 12 13 14 15 15 16 16 17 17 18 18 19 19 20 20 21 21 22 23 24 25 27 28 29 31 32 33 34 35 36 37 39 39 40 41 41
12 13 14 15 15 16 17 17 18 19 19 20 20 20 21 22 22 22 22 23 24 25 26 27 28 30 31 32 33 35 36 37 38 39 41 41 42 43
14 14 15 16 17 17 18 19 19 20 21 21 22 23 23 23 23 24 24 25 25 26 26 27 29 30 31 32 33 34 36 38 39 40 41 43 44 44
16 16 17 18 18 19 20 21 21 21 22 23 23 24 25 25 25 26 26 27 27 28 28 29 29 30 32 33 33 35 36 37 39 41 42 43 45 46
18 18 19 20 20 20 21 22 23 23 24 24 25 26 27 27 27 27 28 29 30 30 30 30 31 31 32 33 35 36 36 37 38 40 42 43 44 46
20 20 21 21 21 22 23 23 24 25 26 26 27 27 28 29 29 29 30 30 31 32 32 32 32 33 34 34 35 36 37 38 39 40 41 43 44 46
22 22 22 22 23 24 25 26 26 27 28 28 29 29 30 31 31 31 31 32 32 33 33 33 34 34 34 35 37 37 38 39 40 41 42 43 44 45
23 24 24 24 25 26 27 27 28 29 30 30 31 32 33 33 33 34 34 34 34 35 36 35 35 36 35 36 36 37 39 39 40 41 42 44 45 46
25 26 26 27 27 28 29 29 30 31 32 33 33 34 35 36 36 36 37 36 36 37 38 37 37 37 37 38 39 39 39 39 40 41 42 43 45 47
27 28 28 29 29 30 31 32 33 33 34 35 36 37 38 38 39 39 39 39 39 39 40 40 39 39 38 39 40 40 40 40 41 41 42 43 44 46
29 29 30 31 32 33 34 34 35 36 37 38 39 39 40 40 41 42 42 42 41 40 41 42 41 41 40 39 39 40 40 41 41 42 43 44 44 45
31 32 33 34 34 35 36 37 38 39 40 41 41 42 43 43 43 44 44 44 44 43 43 43 42 42 41 39 38 40 41 41 41 42 43 44 44 45
33 34 35 36 37 38 39 40 40 41 42 43 44 44 45 45 45 45 46 46 45 44 44 43 43 42 41 39 38 38 39 40 41 41 42 43 44 45
36 37 38 39 40 40 41 42 43 44 45 46 46 46 47 47 47 46 46 46 45 44 43 43 43 42 41 39 38 37 38 39 39 40 41 42 43 43
38 39 40 41 42 42 43 44 45 46 47 48 48 48 48 48 47 47 47 46 45 44 42 42 42 42 40 39 39 38 38 38 39 39 40 39 40 42
40 41 42 43 44 44 45 47 48 49 49 50 50 49 49 48 47 46 46 45 44 43 42 41 40 40 40 38 37 37 37 37 37 38 38 37 38 40
42 44 44 45 46 47 48 49 50 50 51 50 50 50 49 48 47 45 44 43 42 41 40 40 39 39 38 36 35 36 36 35 35 36 36 36 35 36
44 46 47 48 49 50 51 52 52 51 51 50 50 49 48 47 46 45 44 43 42 41 39 39 38 38 37 36 35 34 35 34 33 33 34 34 34 34
47 48 50 51 52 52 52 52 51 51 50 49 47 46 46 45 44 43 42 41 40 40 38 37 37 37 36 35 33 31 32 33 31 31 31 32 32 32
50 51 52 52 52 52 51 51 50 49 48 47 45 45 44 43 42 41 40 39 38 37 36 35 35 35 35 33 31 30 30 30 30 29 29 30 30 30
51 52 52 52 52 51 51 50 49 47 46 45 44 43 42 41 41 40 38 37 36 35 34 33 33 33 32 31 30 30 29 28 28 27 27 27 28 28
Wind_Direction
329 328 328 328 326 324 322 320 317 315 312 309 306 303 299 295 291 287 283 279 275 272 269 266 262 260 258 257 256 254 251 248 245 245 245 245 244 244
322 323 322 322 321 320 318 316 314 313 311 309 307 304 301 298 295 292 288 284 280 277 273 270 266 263 260 259 257 256 254 251 248 246 245 245 243 243
316 317 317 317 316 316 315 314 312 311 310 308 307 305 302 299 297 294 291 288 284 280 276 273 270 267 264 261 258 257 255 252 251 248 245 245 244 243
311 311 312 313 312 312 312 312 310 309 308 307 306 305 304 302 299 297 294 291 288 284 280 276 272 269 267 264 261 258 256 254 252 251 248 245 244 243
306 306 308 309 309 309 309 309 309 308 307 306 305 303 302 301 300 298 295 292 289 286 283 280 276 272 269 266 264 261 258 256 254 252 250 248 246 245
302 303 304 305 305 305 306 307 307 306 306 305 304 303 302 300 299 297 296 294 292 289 286 283 280 275 271 268 266 263 261 258 256 254 252 250 248 246
298 300 301 302 302 302 304 305 305 305 305 304 304 303 302 301 299 297 296 295 294 291 288 286 283 279 275 272 269 266 264 261 258 256 254 252 250 248
296 297 299 299 299 300 301 303 304 303 303 303 303 302 301 300 298 297 296 295 294 292 290 287 285 281 277 274 271 267 265 263 261 258 255 253 251 249
293 294 296 297 297 298 299 300 302 302 302 302 302 301 300 299 297 296 295 295 294 292 289 288 285 283 280 276 272 269 266 264 261 259 257 254 252 250
291 293 295 296 297 297 298 299 300 300 301 302 302 301 300 298 296 296 295 294 294 292 290 288 286 283 280 277 275 272 269 266 263 260 258 256 253 251
291 292 293 295 296 297 297 298 298 298 299 300 301 301 300 298 296 295 294 293 293 292 291 289 286 283 280 278 276 273 270 267 265 262 260 258 255 252
291 291 292 294 294 295 296 297 297 297 298 298 299 299 299 297 295 294 293 292 292 291 291 290 288 284 281 279 278 274 271 269 266 264 262 259 257 254
290 290 292 293 294 295 295 296 296 296 297 297 298 298 297 296 294 293 292 292 291 290 289 288 287 285 282 280 278 275 273 270 267 264 263 260 258 255
290 291 292 293 294 294 295 296 297 297 296 296 297 297 296 295 294 293 292 291 291 290 289 288 287 285 283 281 277 274 273 271 268 265 263 261 259 256
290 290 291 292 293 294 295 295 296 296 296 296 296 296 295 294 293 292 291 291 290 290 289 288 287 285 283 281 278 275 272 271 270 267 264 261 259 257
290 291 291 292 293 294 294 294 295 295 295 295 295 295 294 293 292 291 290 289 289 288 288 287 285 285 283 281 279 276 273 271 270 269 266 263 260 257
290 291 291 291 293 293 294 294 295 295 296 295 295 295 294 292 292 290 289 288 288 287 287 286 285 284 282 280 279 276 274 272 270 269 267 263 260 257
289 290 291 291 292 293 294 295 295 295 296 296 295 294 293 292 291 290 289 288 287 286 286 284 284 283 282 280 280 278 275 272 271 269 267 263 260 257
290 291 291 291 292 293 294 295 295 295 295 295 293 293 292 291 291 289 288 288 286 285 284 284 283 282 281 280 279 279 276 273 272 269 266 264 259 256
290 291 291 292 293 293 294 295 295 295 294 293 292 292 291 290 289 288 288 287 285 284 283 283 283 282 281 280 279 277 275 274 273 271 267 264 259 254
291 291 291 292 293 293 294 294 294 293 293 292 292 291 290 289 288 287 287 285 285 284 282 282 281 280 280 281 279 276 274 274 273 271 267 263 259 254
291 292 293 293 294 294 295 294 294 294 293 292 291 291 290 289 288 289 288 287 286 285 283 282 281 280 281 280 279 276 274 273 272 270 268 264 260 255
292 293 294 295 295 295 295 294 294 293 293 292 290 289 289 288 288 288 287 285 284 284 283 282 281 280 281 280 278 277 276 273 271 269 268 265 259 254
Height
5860 5859 5857 5856 5854 5853 5851 5849 5848 5846 5844 5843 5841 5839 5837 5835 5834 5832 5831 5830 5829 5828 5828 5827 5827 5828 5828 5829 5830 5831 5832 5834 5836 5838 5840 5842 5845 5847
5857 5856 5854 5853 5851 5849 5848 5846 5844 5842 5840 5839 5837 5835 5833 5831 5829 5827 5825 5823 5822 5821 5820 5820 5820 5820 5820 5820 5821 5822 5823 5825 5826 5828 5830 5832 5835 5838
5855 5853 5851 5850 5848 5846 5844 5842 5840 5838 5836 5834 5832 5830 5828 5825 5823 5821 5819 5817 5815 5814 5813 5812 5812 5811 5811 5811 5812 5813 5814 5815 5816 5818 5820 5823 5825 5828
5851 5849 5848 5846 5844 5842 5840 5838 5836 5833 5831 5829 5826 5824 5822 5820 5817 5815 5813 5811 5809 5807 5806 5804 5803 5803 5802 5802 5803 5803 5804 5805 5806 5808 5810 5812 5815 5817
5847 5845 5843 5841 5839 5837 5835 5833 5831 5828 5826 5823 5821 5818 5816 5813 5811 5808 5806 5804 5801 5799 5798 5796 5795 5794 5793 5793 5793 5793 5794 5795 5796 5797 5798 5800 5803 5805
5842 5840 5838 5836 5834 5832 5830 5827 5825 5823 5820 5818 5815 5812 5809 5807 5804 5801 5799 5796 5794 5791 5789 5788 5786 5785 5784 5783 5783 5783 5783 5784 5784 5786 5787 5789 5791 5793
5837 5835 5833 5831 5829 5826 5824 5822 5819 5816 5814 5811 5808 5805 5802 5799 5797 5794 5791 5788 5785 5783 5781 5778 5777 5775 5774 5773 5772 5772 5772 5772 5773 5774 5775 5777 5779 5781
5831 5829 5827 5825 5823 5820 5818 5815 5813 5810 5807 5804 5801 5798 5795 5791 5788 5785 5783 5780 5777 5774 5771 5769 5767 5765 5763 5762 5761 5761 5760 5761 5761 5762 5763 5764 5766 5768
5825 5823 5821 5819 5816 5814 5811 5809 5806 5802 5800 5797 5793 5790 5787 5783 5780 5777 5773 5770 5768 5764 5761 5759 5756 5754 5752 5751 5750 5749 5748 5748 5749 5749 5750 5751 5753 5755
5819 5817 5814 5812 5809 5807 5804 5801 5798 5795 5791 5788 5785 5781 5778 5774 5770 5767 5764 5761 5758 5754 5750 5749 5746 5743 5741 5739 5738 5737 5736 5736 5736 5736 5737 5738 5739 5741
5812 5809 5807 5805 5802 5799 5796 5794 5790 5787 5783 5779 5776 5772 5768 5764 5760 5757 5753 5750 5747 5743 5739 5737 5734 5732 5730 5727 5725 5724 5723 5722 5722 5723 5723 5724 5725 5727
5804 5802 5799 5796 5794 5790 5788 5785 5781 5778 5774 5770 5767 5762 5758 5754 5749 5746 5742 5738 5735 5732 5727 5724 5722 5719 5718 5715 5712 5710 5710 5709 5709 5709 5709 5710 5711 5713
5796 5793 5791 5788 5785 5782 5778 5775 5772 5768 5764 5760 5756 5752 5747 5742 5738 5733 5730 5726 5723 5720 5716 5711 5709 5705 5704 5703 5700 5697 5696 5695 5695 5695 5695 5696 5697 5699
5788 5785 5782 5779 5776 5772 5769 5765 5761 5757 5753 5749 5745 5740 5735 5730 5726 5721 5717 5713 5709 5706 5702 5698 5695 5692 5690 5689 5687 5685 5682 5681 5681 5681 5681 5682 5683 5684
5778 5775 5772 5769 5766 5762 5758 5754 5750 5746 5741 5737 5732 5728 5723 5718 5713 5708 5704 5699 5695 5692 5688 5684 5681 5678 5676 5675 5674 5672 5670 5668 5667 5667 5667 5668 5669 5670
5768 5765 5762 5758 5755 5751 5747 5743 5738 5733 5728 5724 5719 5714 5709 5704 5699 5694 5690 5686 5682 5679 5675 5671 5667 5665 5663 5661 5660 5658 5656 5655 5654 5653 5653 5654 5655 5656
5758 5755 5751 5747 5743 5739 5735 5730 5725 5720 5714 5709 5704 5699 5694 5689 5684 5680 5676 5672 5668 5666 5663 5659 5655 5652 5650 5648 5646 5645 5643 5642 5641 5640 5640 5641 5642 5643
5746 5743 5739 5735 5731 5726 5722 5717 5711 5706 5700 5695 5689 5684 5679 5675 5670 5666 5661 5658 5655 5652 5649 5646 5643 5640 5638 5636 5634 5632 5631 5629 5628 5627 5627 5628 5629 5630
5734 5730 5726 5722 5717 5712 5707 5702 5697 5691 5685 5680 5674 5669 5665 5660 5656 5652 5648 5645 5641 5639 5636 5633 5630 5627 5626 5625 5623 5620 5618 5617 5616 5615 5615 5615 5617 5618
5722 5717 5713 5708 5703 5698 5692 5687 5682 5676 5670 5665 5659 5654 5650 5646 5642 5638 5635 5631 5629 5626 5624 5621 5618 5616 5614 5613 5612 5610 5607 5605 5605 5604 5604 5604 5605 5607
5708 5703 5698 5693 5688 5682 5677 5671 5666 5661 5655 5650 5645 5640 5635 5631 5627 5624 5621 5618 5615 5613 5611 5609 5607 5604 5602 5601 5600 5599 5597 5594 5594 5593 5594 5594 5595 5597
5693 5688 5682 5677 5672 5666 5661 5656 5650 5645 5640 5635 5631 5626 5622 5618 5615 5612 5608 5606 5603 5601 5599 5597 5595 5593 5591 5590 5589 5588 5587 5585 5584 5583 5584 5584 5585 5587
5678 5672 5667 5661 5656 5650 5645 5640 5635 5630 5625 5621 5616 5612 5609 5605 5602 5599 5596 5594 5591 5590 5588 5586 5584 5582 5581 5579 5578 5577 5576 5575 5575 5574 5575 5575 5576 5577